SCP
0 0 0 0 0 0 0 0 0 0 0 0 0 0 0 0 0 0 0 0 0 0 0 0 0 0 0 0 0 0 0 0 0 0 0 0 0 0 0 0 0 0 0 0
0 0 0 0 0 0 0 0 0 0 -0 0 0 0 0 0 0 0 0 0 0 0 0 0 0 0 0 0 0 0 0 0 0 0 0 0 0 0 0 0 0 0 0 0
0 0 0 0 0 0 0 0 0 0 0 0 0 0 0 0 0 0 0 0 0 0 0 0 0 0 0 0 0 0 0 0 0 0 0 0 0 0 0 0 0 0 0 0
0 0 0 0 0 0 0 0 0 0 0 0 0 0 0 0 0 0 0 0 0 0 0 0 0 0 0 0 0 0 0 0 0 0 0 0 0 0 0 0 0 0 0 0
0 0 0 0 0 0 0 0 0 0 0 0 0 0 -0 0 0 0 0 0 0 0 0 0 0 0 0 0 0 0 0 0 0 0 0 0 0 0 0 0 0 0 0 0
0 0 0 0 0 0 0 0 0 0 0 0 0 0 0 0 0 0 0 0 0 0 0 0 0 0 0 0 0 0 0 0 0 0 0 0 0 0 0 0 0 0 0 0
0 0 0 0 0 0 0 0 0 0 0 0 0 0 0 0 0 0 0 0 0 0 0 0 0 0 0 0 0 0 0 0 0 0 0 0 0 0 0 0 0 0 0 0
0 0 0 0 0 0 0 0 0 0 0 0 0 0 0 0 0 0 0 0 0 0 0 0 0 0 0 0 0 0 0 0 0 0 0 0 0 0 0 0 0 0 0 0
0 0 0 0 0 0 0 0 0 0 0 0 0 0 0 0 0 0 0 0 0 0 0 0 0 0 0 0 0 0 0 0 0 0 0 0 0 0 0 0 0 0 0 0
0 0 0 0 0 0 0 0 0 0 0 0 0 0 0 0 0 0 0 0 0 0 0 0 0 0 0 0 0 0 0 0 0 0 0 0 0 0 0 0 0 0 0 0
0 0 0 0 0 0 0 0 0 0 0 0 0 0 0 0 0 0 0 0 0 0 0 0 0 0 0 0 0 0 0 0 0 0 0 0 0 0 0 0 0 0 0 0
0 0 0 0 0 0 0 0 0 0 0 0 0 0 0 0 0 0 0 0 0 0 0 0 0 0 0 0 0 0 0 0 0 0 0 0 0 0 0 0 0 0 0 0
0 0 0 0 0 0 0 0 0 0 0 0 0 0 0 0 0 0 0 0 0 0 0 0 0 0 0 0 0 0 0 0 0 0 0 0 0 0 0 0 0 0 0 0
0 0 0 0 0 0 0 0 0 0 0 0 0 0 0 0 0 0 0 0 0 0 0 0 0 0 0 0 0 0 0 0 0 0 0 0 0 0 0 0 0 0 0 0
0 0 0 0 0 0 0 0 0 0 0 0 0 0 0 0 0 0 0 0 0 0 0 0 0 0 0 0 0 0 0 0 0 0 0 0 0 0 0 0 0 0 0 0
0 0 0 0 0 0 0 0 0 0 0 0 0 0 0 0 0 0 0 0 0 0 0 0 0 0 0 0 0 0 0 0 0 0 0 0 0 0 0 0 0 0 0 0
0 0 0 0 0 0 0 0 0 0 0 0 0 0 0 0 0 0 0 0 0 0 0 0 0 0 0 0 0 0 0 0 0 0 0 0 0 0 0 0 0 0 0 0
0 0 0 0 0 0 0 0 0 0 0 0 0 0 0 0 0 0 0 0 0 0 0 0 0 0 0 0 0 0 0 0 0 0 0 0 0 0 0 0 0 0 0 0
0 0 0 0 0 0 0 0 0 0 0 0 0 0 0 0 0 0 0 0 0 0 0 0 0 0 0 0 0 0 0 0 0 0 0 0 0 0 0 0 0 0 0 0
0 0 0 0 0 0 0 0 0 0 0 0 0 0 0 0 0 0 0 0 0 0 0 0 0 0 0 0 0 0 0 0 0 0 0 0 0 0 0 0 0 0 0 0
0 0 0 0 0 0 0 0 0 0 0 0 0 0 0 0 0 0 0 0 0 0 0 0 0 0 0 0 0 0 0 0 0 0 0 0 0 0 0 0 0 0 0 0
0 0 0 0 0 0 0 0 0 0 0 0 0 0 0 0 0 0 0 0 0 0 0 0 0 0 0 0 0 0 0 0 0 0 0 0 0 0 0 0 0 0 0 0
0 0 0 0 0 0 0 0 0 0 0 0 0 0 0 0 0 0 0 0 0 0 0 0 0 0 0 0 0 0 0 0 0 0 0 0 0 0 0 0 0 0 0 0
0 0 0 0 0 0 0 0 0 0 0 0 0 0 0 0 0 0 0 0 0 0 0 0 0 0 0 0 0 0 0 0 0 0 0 0 0 0 0 0 0 0 0 0
0 0 0 0 0 0 0 0 0 0 0 0 0 0 0 0 0 0 0 0 0 0 0 0 0 0 0 0 0 0 0 0 0 0 0 0 0 0 0 0 0 0 0 0
0 0 0 0 0 0 0 0 0 0 0 0 0 0 0 0 0 0 0 0 0 0 0 0 0 0 0 0 0 0 0 0 0 0 0 0 0 0 0 0 0 0 0 0
0 0 0 0 0 0 0 0 0 0 0 0 0 0 0 0 0 0 0 0 0 0 0 0 0 0 0 0 0 0 0 0 0 0 0 0 0 0 0 0 0 0 0 0
Wind_Speed_500mb
9 3 8 9 11 20 20 11 14 9 21 18 17 21 50 53 47 49 45 27 28 25 22 14 7 8 10 13 21 27 33 39 47 48 50 49 49 49 47 45 44 45 45 45
7 6 11 9 13 21 18 7 18 7 25 19 49 33 35 43 46 55 55 48 38 36 27 25 16 12 10 16 25 33 39 47 53 52 49 47 48 49 50 49 49 51 52 53
9 4 6 14 31 22 13 14 17 17 41 13 11 27 54 55 46 53 54 47 43 42 31 28 25 21 20 23 31 38 42 52 57 54 52 47 47 49 49 51 54 56 57 59
6 3 10 13 5 11 37 21 31 17 25 23 31 45 42 34 38 35 34 34 42 43 36 28 29 28 28 33 39 42 48 56 64 58 55 50 47 45 44 48 53 57 60 63
10 10 14 16 11 17 19 26 42 48 45 49 31 27 79 66 65 59 49 40 37 36 35 32 30 29 31 38 42 49 63 59 61 60 58 54 51 51 54 58 59 62 62 62
7 11 18 14 4 20 13 16 28 56 52 45 30 6 19 12 24 37 42 41 38 33 37 35 30 30 38 48 49 64 63 62 60 60 59 58 56 59 63 68 71 70 63 58
9 11 16 18 11 26 13 16 8 59 62 38 17 31 11 15 21 20 23 26 34 42 33 29 31 37 46 49 61 64 64 61 56 55 60 62 66 70 70 64 62 62 67 68
7 8 32 24 18 21 14 8 6 17 46 43 47 26 26 18 13 16 18 20 23 25 26 27 35 39 46 58 63 62 56 58 59 60 62 61 58 56 61 67 70 70 70 70
24 18 13 64 27 55 12 7 9 12 20 30 30 35 30 27 21 21 19 18 21 26 30 32 34 43 55 65 58 51 54 58 57 57 55 57 61 64 69 69 69 69 66 65
5 10 24 34 71 43 57 20 14 19 17 27 29 28 33 28 28 24 23 25 27 28 29 36 39 52 61 54 47 51 52 55 57 55 53 54 57 62 66 63 62 61 59 57
12 10 9 45 52 59 64 48 42 30 24 28 29 25 29 29 27 26 24 23 24 29 36 45 49 52 47 41 46 53 56 53 52 52 53 56 56 57 58 55 55 54 50 48
20 37 34 39 47 51 66 58 60 61 46 47 42 37 32 28 27 26 25 25 31 39 45 48 47 42 43 45 51 52 51 50 49 51 53 55 60 59 50 52 45 43 42 42
27 45 51 45 34 34 42 47 53 66 60 56 40 39 37 31 28 24 29 36 41 45 44 43 43 47 44 42 44 44 46 47 49 50 52 56 56 55 53 40 40 37 35 34
72 49 29 41 35 44 45 40 42 45 45 42 38 32 25 23 28 36 42 42 42 39 37 43 45 39 35 38 40 42 45 48 50 51 54 53 52 48 44 41 35 29 31 34
66 73 71 56 52 44 44 42 40 40 36 30 26 25 28 34 39 39 36 37 34 35 38 38 34 31 35 40 45 48 49 50 52 52 52 51 47 43 39 34 33 33 31 34
54 55 57 50 45 46 45 44 42 38 33 31 32 37 39 40 38 33 31 32 33 34 32 31 33 37 43 47 50 50 51 51 50 49 46 42 37 33 30 30 31 34 38 42
65 44 44 45 48 50 51 47 42 38 39 47 50 41 35 32 29 30 29 31 32 28 29 35 40 44 46 47 49 47 45 43 42 41 39 34 30 29 29 30 33 37 39 39
73 75 75 66 60 61 62 61 59 56 54 44 37 36 33 35 33 30 29 27 26 25 31 36 40 42 42 43 42 40 39 38 35 33 30 29 29 30 30 33 35 36 36 35
45 41 50 63 67 66 62 58 53 49 42 37 38 38 36 33 27 24 22 22 25 28 30 34 37 39 39 37 38 37 35 33 30 28 28 29 28 29 33 34 37 37 35 36
90 103 107 103 103 96 78 64 52 48 43 37 35 35 32 27 23 22 22 20 22 24 27 31 33 34 37 37 37 36 34 32 29 27 28 28 28 30 35 39 41 37 37 38
101 96 86 77 71 63 58 53 50 43 36 34 30 27 24 20 18 16 14 14 18 21 25 28 32 33 34 34 35 36 36 32 28 26 28 31 34 38 40 43 41 40 41 36
58 56 54 46 41 36 31 33 36 39 34 29 26 21 15 11 11 11 14 17 18 23 26 28 31 33 33 33 32 31 31 29 28 29 33 35 37 39 39 41 44 42 42 36
42 44 42 42 46 50 48 41 35 28 26 20 14 10 9 10 12 16 17 19 21 25 29 29 32 33 34 34 33 33 32 31 33 36 38 40 41 41 41 40 47 42 39 40
65 64 63 58 53 45 42 35 28 21 16 12 8 5 7 10 12 19 24 27 31 32 33 34 36 36 36 35 35 34 35 36 37 39 42 43 43 41 42 44 46 41 39 42
65 63 58 52 43 36 30 26 21 17 13 8 4 5 11 16 19 22 26 29 31 35 36 38 41 42 42 42 42 42 43 42 41 43 44 45 44 44 44 43 45 43 40 43
54 50 44 37 34 28 23 18 12 8 5 1 4 7 12 17 20 23 28 31 33 36 37 38 39 41 44 46 47 47 49 49 48 46 48 48 47 46 45 45 44 43 44 43
38 32 29 28 22 16 11 8 4 3 5 8 11 14 19 23 27 31 35 36 39 42 46 47 48 49 49 50 50 51 52 53 53 51 51 52 49 49 48 46 46 44 46 47
Wind_Direction_500mb
246 226 177 200 180 185 201 185 178 255 210 235 226 216 221 223 229 231 234 244 236 220 218 219 255 304 324 341 344 343 341 341 338 323 314 308 303 296 288 285 285 289 290 292
279 205 207 262 222 199 228 256 277 295 273 199 255 249 244 237 238 242 244 245 248 221 221 222 242 275 300 327 334 334 332 333 334 326 313 306 301 298 290 285 286 285 286 287
260 359 146 290 228 184 196 211 198 222 243 171 223 225 242 247 249 251 249 251 224 219 224 227 239 267 284 304 320 324 323 326 329 321 313 307 301 296 295 291 287 287 287 285
180 63 242 238 140 201 208 218 211 256 247 209 229 241 252 242 253 248 242 235 222 223 227 236 241 259 279 299 310 316 316 320 321 314 308 306 302 303 303 300 296 293 289 288
164 198 295 288 204 171 171 252 211 223 247 241 248 268 272 260 253 253 245 239 235 234 230 237 244 257 273 299 309 314 320 315 313 308 304 303 301 302 303 303 305 304 298 294
148 190 220 236 235 160 121 274 233 203 231 239 168 191 254 254 234 231 233 233 228 227 229 240 248 262 285 302 308 319 318 310 312 307 305 306 305 304 307 306 306 305 296 296
184 228 280 241 159 149 136 245 250 204 220 180 187 210 223 194 198 188 193 208 222 227 245 239 256 276 292 302 314 315 308 308 311 309 308 307 308 308 308 308 307 306 301 300
105 209 249 170 134 176 213 212 252 226 222 216 219 216 185 168 174 178 186 198 207 212 226 250 272 285 297 308 316 309 307 308 310 310 310 312 312 312 308 309 309 308 308 308
187 208 220 183 204 205 204 230 206 231 219 212 212 210 201 204 208 199 198 210 228 245 257 266 281 296 307 315 309 306 305 309 310 311 312 309 308 309 310 310 311 311 310 309
122 221 225 220 216 225 223 229 226 221 222 206 210 209 212 207 197 208 232 243 250 258 273 290 304 308 310 310 307 304 307 309 312 311 310 308 308 308 309 311 311 310 311 311
254 268 285 241 234 235 240 237 237 244 236 214 201 212 215 213 229 240 243 247 263 283 296 306 308 308 310 309 306 305 308 312 313 311 313 314 314 315 313 312 311 313 312 312
226 193 212 233 245 248 243 241 242 238 227 221 243 243 228 240 247 243 251 268 289 299 304 306 303 305 304 304 304 305 309 314 316 315 315 316 317 316 315 312 311 307 305 308
227 233 234 234 238 248 255 258 257 249 246 240 238 233 245 244 244 257 280 294 299 300 299 296 297 299 303 301 301 306 312 313 311 311 312 314 314 315 316 313 309 309 307 307
232 232 221 225 234 249 251 253 248 251 243 240 239 232 230 253 275 289 296 294 290 285 284 286 292 299 297 300 307 310 310 308 307 309 309 310 310 310 310 310 312 309 309 310
229 235 245 250 243 233 229 225 228 225 221 210 214 234 258 277 288 293 281 273 265 273 282 286 291 296 300 306 308 307 305 303 302 302 304 305 306 306 308 309 310 309 311 309
229 231 232 239 236 221 217 214 213 209 213 225 247 266 280 285 287 272 252 256 270 279 283 288 296 303 307 307 305 305 304 303 304 306 307 306 305 304 302 303 306 309 310 312
223 204 194 196 197 204 210 216 228 239 244 256 266 273 282 279 249 241 253 268 278 282 291 299 304 307 308 308 308 310 310 309 310 311 309 304 300 296 299 303 304 307 312 313
235 236 232 217 224 227 229 238 249 255 258 263 265 273 267 254 240 247 259 264 271 285 294 300 305 309 310 312 312 314 314 315 317 313 306 301 299 301 301 302 304 309 311 311
207 209 214 223 231 241 250 257 258 256 247 258 270 258 235 228 237 246 254 267 283 294 302 308 313 317 317 319 319 320 320 318 315 308 305 300 300 301 303 304 308 309 307 309
235 241 243 242 245 250 253 254 245 242 257 253 235 214 217 221 228 240 255 275 295 305 311 314 317 316 318 320 320 318 318 316 314 310 309 302 302 306 306 308 308 303 304 302
236 237 236 238 240 240 243 246 248 244 225 201 198 197 203 212 228 250 279 297 301 309 313 314 312 313 315 316 317 316 313 311 311 307 305 304 309 310 311 308 303 300 301 294
231 227 221 217 211 210 204 189 178 170 167 169 173 181 195 221 250 276 297 306 307 311 312 314 313 312 313 315 315 310 305 305 304 302 302 304 306 307 308 307 303 299 296 296
190 185 173 166 159 149 143 147 149 154 154 161 176 194 218 241 275 298 297 301 305 305 307 310 307 307 308 310 309 306 305 304 304 303 303 305 306 307 307 308 304 297 296 297
132 132 132 135 136 138 136 134 140 146 150 157 175 215 259 277 293 298 300 302 304 301 302 303 299 299 299 297 296 297 298 298 299 299 300 301 301 302 305 308 303 298 297 295
125 126 126 128 131 132 133 137 140 141 145 158 187 255 283 291 295 296 298 301 300 300 301 298 296 294 296 297 295 294 294 294 296 296 298 300 299 300 304 306 304 299 296 297
121 121 122 126 126 130 128 129 134 135 141 212 290 289 290 294 293 294 298 301 304 302 300 300 300 299 298 296 295 294 292 292 292 292 293 294 295 296 300 303 301 298 295 295
121 122 121 116 115 116 115 111 90 23 331 312 308 304 301 298 299 302 299 296 295 295 293 292 291 290 292 293 294 294 291 289 287 287 286 286 289 293 295 298 298 295 292 290
Wind_Speed_850mb
9 3 8 9 11 20 20 11 14 9 21 18 17 21 50 53 47 49 45 27 28 25 22 14 7 8 10 13 21 27 33 39 47 48 50 49 49 49 47 45 44 45 45 45
7 6 11 9 13 21 18 7 18 7 25 19 49 33 35 43 46 55 55 48 38 36 27 25 16 12 10 16 25 33 39 47 53 52 49 47 48 49 50 49 49 51 52 53
9 4 6 14 31 22 13 14 17 17 41 13 11 27 54 55 46 53 54 47 43 42 31 28 25 21 20 23 31 38 42 52 57 54 52 47 47 49 49 51 54 56 57 59
6 3 10 13 5 11 37 21 31 17 25 23 31 45 42 34 38 35 34 34 42 43 36 28 29 28 28 33 39 42 48 56 64 58 55 50 47 45 44 48 53 57 60 63
10 10 14 16 11 17 19 26 42 48 45 49 31 27 79 66 65 59 49 40 37 36 35 32 30 29 31 38 42 49 63 59 61 60 58 54 51 51 54 58 59 62 62 62
7 11 18 14 4 20 13 16 28 56 52 45 30 6 19 12 24 37 42 41 38 33 37 35 30 30 38 48 49 64 63 62 60 60 59 58 56 59 63 68 71 70 63 58
9 11 16 18 11 26 13 16 8 59 62 38 17 31 11 15 21 20 23 26 34 42 33 29 31 37 46 49 61 64 64 61 56 55 60 62 66 70 70 64 62 62 67 68
7 8 32 24 18 21 14 8 6 17 46 43 47 26 26 18 13 16 18 20 23 25 26 27 35 39 46 58 63 62 56 58 59 60 62 61 58 56 61 67 70 70 70 70
24 18 13 64 27 55 12 7 9 12 20 30 30 35 30 27 21 21 19 18 21 26 30 32 34 43 55 65 58 51 54 58 57 57 55 57 61 64 69 69 69 69 66 65
5 10 24 34 71 43 57 20 14 19 17 27 29 28 33 28 28 24 23 25 27 28 29 36 39 52 61 54 47 51 52 55 57 55 53 54 57 62 66 63 62 61 59 57
12 10 9 45 52 59 64 48 42 30 24 28 29 25 29 29 27 26 24 23 24 29 36 45 49 52 47 41 46 53 56 53 52 52 53 56 56 57 58 55 55 54 50 48
20 37 34 39 47 51 66 58 60 61 46 47 42 37 32 28 27 26 25 25 31 39 45 48 47 42 43 45 51 52 51 50 49 51 53 55 60 59 50 52 45 43 42 42
27 45 51 45 34 34 42 47 53 66 60 56 40 39 37 31 28 24 29 36 41 45 44 43 43 47 44 42 44 44 46 47 49 50 52 56 56 55 53 40 40 37 35 34
72 49 29 41 35 44 45 40 42 45 45 42 38 32 25 23 28 36 42 42 42 39 37 43 45 39 35 38 40 42 45 48 50 51 54 53 52 48 44 41 35 29 31 34
66 73 71 56 52 44 44 42 40 40 36 30 26 25 28 34 39 39 36 37 34 35 38 38 34 31 35 40 45 48 49 50 52 52 52 51 47 43 39 34 33 33 31 34
54 55 57 50 45 46 45 44 42 38 33 31 32 37 39 40 38 33 31 32 33 34 32 31 33 37 43 47 50 50 51 51 50 49 46 42 37 33 30 30 31 34 38 42
65 44 44 45 48 50 51 47 42 38 39 47 50 41 35 32 29 30 29 31 32 28 29 35 40 44 46 47 49 47 45 43 42 41 39 34 30 29 29 30 33 37 39 39
73 75 75 66 60 61 62 61 59 56 54 44 37 36 33 35 33 30 29 27 26 25 31 36 40 42 42 43 42 40 39 38 35 33 30 29 29 30 30 33 35 36 36 35
45 41 50 63 67 66 62 58 53 49 42 37 38 38 36 33 27 24 22 22 25 28 30 34 37 39 39 37 38 37 35 33 30 28 28 29 28 29 33 34 37 37 35 36
90 103 107 103 103 96 78 64 52 48 43 37 35 35 32 27 23 22 22 20 22 24 27 31 33 34 37 37 37 36 34 32 29 27 28 28 28 30 35 39 41 37 37 38
101 96 86 77 71 63 58 53 50 43 36 34 30 27 24 20 18 16 14 14 18 21 25 28 32 33 34 34 35 36 36 32 28 26 28 31 34 38 40 43 41 40 41 36
58 56 54 46 41 36 31 33 36 39 34 29 26 21 15 11 11 11 14 17 18 23 26 28 31 33 33 33 32 31 31 29 28 29 33 35 37 39 39 41 44 42 42 36
42 44 42 42 46 50 48 41 35 28 26 20 14 10 9 10 12 16 17 19 21 25 29 29 32 33 34 34 33 33 32 31 33 36 38 40 41 41 41 40 47 42 39 40
65 64 63 58 53 45 42 35 28 21 16 12 8 5 7 10 12 19 24 27 31 32 33 34 36 36 36 35 35 34 35 36 37 39 42 43 43 41 42 44 46 41 39 42
65 63 58 52 43 36 30 26 21 17 13 8 4 5 11 16 19 22 26 29 31 35 36 38 41 42 42 42 42 42 43 42 41 43 44 45 44 44 44 43 45 43 40 43
54 50 44 37 34 28 23 18 12 8 5 1 4 7 12 17 20 23 28 31 33 36 37 38 39 41 44 46 47 47 49 49 48 46 48 48 47 46 45 45 44 43 44 43
38 32 29 28 22 16 11 8 4 3 5 8 11 14 19 23 27 31 35 36 39 42 46 47 48 49 49 50 50 51 52 53 53 51 51 52 49 49 48 46 46 44 46 47
Wind_Direction_850mb
246 226 177 200 180 185 201 185 178 255 210 235 226 216 221 223 229 231 234 244 236 220 218 219 255 304 324 341 344 343 341 341 338 323 314 308 303 296 288 285 285 289 290 292
279 205 207 262 222 199 228 256 277 295 273 199 255 249 244 237 238 242 244 245 248 221 221 222 242 275 300 327 334 334 332 333 334 326 313 306 301 298 290 285 286 285 286 287
260 359 146 290 228 184 196 211 198 222 243 171 223 225 242 247 249 251 249 251 224 219 224 227 239 267 284 304 320 324 323 326 329 321 313 307 301 296 295 291 287 287 287 285
180 63 242 238 140 201 208 218 211 256 247 209 229 241 252 242 253 248 242 235 222 223 227 236 241 259 279 299 310 316 316 320 321 314 308 306 302 303 303 300 296 293 289 288
164 198 295 288 204 171 171 252 211 223 247 241 248 268 272 260 253 253 245 239 235 234 230 237 244 257 273 299 309 314 320 315 313 308 304 303 301 302 303 303 305 304 298 294
148 190 220 236 235 160 121 274 233 203 231 239 168 191 254 254 234 231 233 233 228 227 229 240 248 262 285 302 308 319 318 310 312 307 305 306 305 304 307 306 306 305 296 296
184 228 280 241 159 149 136 245 250 204 220 180 187 210 223 194 198 188 193 208 222 227 245 239 256 276 292 302 314 315 308 308 311 309 308 307 308 308 308 308 307 306 301 300
105 209 249 170 134 176 213 212 252 226 222 216 219 216 185 168 174 178 186 198 207 212 226 250 272 285 297 308 316 309 307 308 310 310 310 312 312 312 308 309 309 308 308 308
187 208 220 183 204 205 204 230 206 231 219 212 212 210 201 204 208 199 198 210 228 245 257 266 281 296 307 315 309 306 305 309 310 311 312 309 308 309 310 310 311 311 310 309
122 221 225 220 216 225 223 229 226 221 222 206 210 209 212 207 197 208 232 243 250 258 273 290 304 308 310 310 307 304 307 309 312 311 310 308 308 308 309 311 311 310 311 311
254 268 285 241 234 235 240 237 237 244 236 214 201 212 215 213 229 240 243 247 263 283 296 306 308 308 310 309 306 305 308 312 313 311 313 314 314 315 313 312 311 313 312 312
226 193 212 233 245 248 243 241 242 238 227 221 243 243 228 240 247 243 251 268 289 299 304 306 303 305 304 304 304 305 309 314 316 315 315 316 317 316 315 312 311 307 305 308
227 233 234 234 238 248 255 258 257 249 246 240 238 233 245 244 244 257 280 294 299 300 299 296 297 299 303 301 301 306 312 313 311 311 312 314 314 315 316 313 309 309 307 307
232 232 221 225 234 249 251 253 248 251 243 240 239 232 230 253 275 289 296 294 290 285 284 286 292 299 297 300 307 310 310 308 307 309 309 310 310 310 310 310 312 309 309 310
229 235 245 250 243 233 229 225 228 225 221 210 214 234 258 277 288 293 281 273 265 273 282 286 291 296 300 306 308 307 305 303 302 302 304 305 306 306 308 309 310 309 311 309
229 231 232 239 236 221 217 214 213 209 213 225 247 266 280 285 287 272 252 256 270 279 283 288 296 303 307 307 305 305 304 303 304 306 307 306 305 304 302 303 306 309 310 312
223 204 194 196 197 204 210 216 228 239 244 256 266 273 282 279 249 241 253 268 278 282 291 299 304 307 308 308 308 310 310 309 310 311 309 304 300 296 299 303 304 307 312 313
235 236 232 217 224 227 229 238 249 255 258 263 265 273 267 254 240 247 259 264 271 285 294 300 305 309 310 312 312 314 314 315 317 313 306 301 299 301 301 302 304 309 311 311
207 209 214 223 231 241 250 257 258 256 247 258 270 258 235 228 237 246 254 267 283 294 302 308 313 317 317 319 319 320 320 318 315 308 305 300 300 301 303 304 308 309 307 309
235 241 243 242 245 250 253 254 245 242 257 253 235 214 217 221 228 240 255 275 295 305 311 314 317 316 318 320 320 318 318 316 314 310 309 302 302 306 306 308 308 303 304 302
236 237 236 238 240 240 243 246 248 244 225 201 198 197 203 212 228 250 279 297 301 309 313 314 312 313 315 316 317 316 313 311 311 307 305 304 309 310 311 308 303 300 301 294
231 227 221 217 211 210 204 189 178 170 167 169 173 181 195 221 250 276 297 306 307 311 312 314 313 312 313 315 315 310 305 305 304 302 302 304 306 307 308 307 303 299 296 296
190 185 173 166 159 149 143 147 149 154 154 161 176 194 218 241 275 298 297 301 305 305 307 310 307 307 308 310 309 306 305 304 304 303 303 305 306 307 307 308 304 297 296 297
132 132 132 135 136 138 136 134 140 146 150 157 175 215 259 277 293 298 300 302 304 301 302 303 299 299 299 297 296 297 298 298 299 299 300 301 301 302 305 308 303 298 297 295
125 126 126 128 131 132 133 137 140 141 145 158 187 255 283 291 295 296 298 301 300 300 301 298 296 294 296 297 295 294 294 294 296 296 298 300 299 300 304 306 304 299 296 297
121 121 122 126 126 130 128 129 134 135 141 212 290 289 290 294 293 294 298 301 304 302 300 300 300 299 298 296 295 294 292 292 292 292 293 294 295 296 300 303 301 298 295 295
121 122 121 116 115 116 115 111 90 23 331 312 308 304 301 298 299 302 299 296 295 295 293 292 291 290 292 293 294 294 291 289 287 287 286 286 289 293 295 298 298 295 292 290